When you browse on this site, cookies collect data to enhance your experience and personalize the content and advertising you see.
Visit our Privacy Policy to learn more. By continuing to use the site, you agree to this use of cookies and data.
  • In United Kingdom
  • List of Countries
  • For 7 days
  • Water Temperature
  • Satellite Maps
  • Weather Map
  • Weather Widgets
  • user-avatar
    Login

    Hourly Weather Aracaju

    Today, 17 January, Thursday

    Time Temperature Precipitation Wind Pressure Humidity
    00:00 +27°C° 0 mm 3 mps 760 mmHg 86%
    01:00 +27°C° 0 mm 3 mps 760 mmHg 87%
    02:00 +27°C° 0.2 mm 3 mps 759 mmHg 87%
    03:00 +27°C° 0.2 mm 3 mps 759 mmHg 88%
    04:00 +27°C° 0.2 mm 3 mps 759 mmHg 88%
    05:00 +27°C° 0.2 mm 3 mps 759 mmHg 88%
    06:00 +27°C° 0.2 mm 2 mps 759 mmHg 87%
    07:00 +27°C° 0.2 mm 2 mps 760 mmHg 86%
    08:00 +28°C° 0.4 mm 3 mps 760 mmHg 82%
    09:00 +29°C° 0.4 mm 3 mps 760 mmHg 77%
    10:00 +30°C° 0.4 mm 3 mps 760 mmHg 72%
    11:00 +32°C° 0.2 mm 4 mps 760 mmHg 69%
    12:00 +33°C° 0.2 mm 4 mps 759 mmHg 65%
    13:00 +33°C° 0.2 mm 5 mps 759 mmHg 62%
    14:00 +33°C° 0 mm 5 mps 759 mmHg 63%
    15:00 +33°C° 0 mm 5 mps 758 mmHg 64%
    16:00 +33°C° 0 mm 6 mps 758 mmHg 65%
    17:00 +32°C° 0.1 mm 5 mps 758 mmHg 70%
    18:00 +30°C° 0.1 mm 5 mps 758 mmHg 75%
    19:00 +29°C° 0.1 mm 4 mps 758 mmHg 79%
    20:00 +28°C° 0.1 mm 4 mps 759 mmHg 81%
    21:00 +28°C° 0.1 mm 4 mps 759 mmHg 83%
    22:00 +28°C° 0.1 mm 4 mps 759 mmHg 85%
    23:00 +27°C° 0.1 mm 3 mps 759 mmHg 86%

    Tomorrow, 18 January, Friday

    Time Temperature Precipitation Wind Pressure Humidity
    00:00 +27°C° 0.1 mm 3 mps 759 mmHg 87%
    01:00 +27°C° 0.1 mm 3 mps 759 mmHg 87%
    02:00 +27°C° 0.2 mm 3 mps 759 mmHg 87%
    03:00 +27°C° 0.2 mm 2 mps 758 mmHg 88%
    04:00 +27°C° 0.2 mm 2 mps 758 mmHg 88%
    05:00 +27°C° 0.4 mm 2 mps 758 mmHg 87%
    06:00 +27°C° 0.4 mm 2 mps 759 mmHg 86%
    07:00 +27°C° 0.4 mm 2 mps 759 mmHg 85%
    08:00 +28°C° 0.6 mm 3 mps 759 mmHg 81%
    09:00 +29°C° 0.6 mm 3 mps 760 mmHg 76%
    10:00 +30°C° 0.6 mm 4 mps 760 mmHg 72%
    11:00 +30°C° 0.3 mm 4 mps 760 mmHg 70%
    12:00 +30°C° 0.3 mm 4 mps 759 mmHg 68%
    13:00 +32°C° 0.3 mm 4 mps 759 mmHg 66%
    14:00 +32°C° 0 mm 5 mps 758 mmHg 65%
    15:00 +32°C° 0 mm 5 mps 758 mmHg 64%
    16:00 +32°C° 0 mm 5 mps 757 mmHg 62%
    17:00 +30°C° 0 mm 5 mps 757 mmHg 67%
    18:00 +29°C° 0 mm 4 mps 757 mmHg 71%
    19:00 +28°C° 0 mm 4 mps 758 mmHg 75%
    20:00 +28°C° 0 mm 4 mps 758 mmHg 78%
    21:00 +27°C° 0 mm 4 mps 759 mmHg 80%
    22:00 +27°C° 0 mm 3 mps 759 mmHg 82%
    23:00 +27°C° 0 mm 3 mps 759 mmHg 83%

    Day after tomorrow, 19 January, Saturday

    Time Temperature Precipitation Wind Pressure Humidity
    00:00 +27°C° 0 mm 3 mps 759 mmHg 83%
    01:00 +26°C° 0 mm 3 mps 759 mmHg 84%
    02:00 +26°C° 0 mm 3 mps 759 mmHg 84%
    03:00 +26°C° 0 mm 2 mps 758 mmHg 84%
    04:00 +26°C° 0 mm 2 mps 758 mmHg 84%
    05:00 +26°C° 0 mm 2 mps 758 mmHg 83%
    06:00 +26°C° 0 mm 2 mps 758 mmHg 82%
    07:00 +26°C° 0 mm 2 mps 759 mmHg 81%
    08:00 +28°C° 0 mm 2 mps 759 mmHg 74%
    09:00 +29°C° 0 mm 3 mps 759 mmHg 67%
    10:00 +31°C° 0 mm 3 mps 760 mmHg 60%
    11:00 +32°C° 0 mm 4 mps 759 mmHg 58%
    12:00 +33°C° 0 mm 4 mps 759 mmHg 55%
    13:00 +34°C° 0 mm 4 mps 759 mmHg 53%
    14:00 +33°C° 0 mm 4 mps 758 mmHg 53%
    15:00 +33°C° 0 mm 5 mps 758 mmHg 54%
    16:00 +33°C° 0 mm 5 mps 757 mmHg 55%
    17:00 +32°C° 0 mm 5 mps 757 mmHg 60%
    18:00 +29°C° 0 mm 4 mps 758 mmHg 66%
    19:00 +28°C° 0 mm 4 mps 758 mmHg 72%
    20:00 +28°C° 0 mm 4 mps 758 mmHg 75%
    21:00 +27°C° 0 mm 3 mps 759 mmHg 78%
    22:00 +27°C° 0 mm 3 mps 760 mmHg 81%
    23:00 +27°C° 0 mm 3 mps 759 mmHg 83%

    20 January, Sunday

    Time Temperature Precipitation Wind Pressure Humidity
    00:00 +27°C° 0 mm 3 mps 759 mmHg 85%
    01:00 +27°C° 0 mm 2 mps 759 mmHg 86%
    02:00 +27°C° 0.1 mm 2 mps 759 mmHg 87%
    03:00 +27°C° 0.1 mm 2 mps 758 mmHg 87%
    04:00 +27°C° 0.1 mm 2 mps 758 mmHg 88%
    05:00 +27°C° 0.1 mm 2 mps 758 mmHg 87%
    06:00 +27°C° 0.1 mm 2 mps 759 mmHg 87%
    07:00 +27°C° 0.1 mm 1 mps 759 mmHg 86%
    08:00 +28°C° 0.4 mm 2 mps 760 mmHg 81%
    09:00 +29°C° 0.4 mm 3 mps 760 mmHg 76%
    10:00 +30°C° 0.4 mm 3 mps 760 mmHg 71%
    11:00 +32°C° 0.9 mm 4 mps 760 mmHg 71%
    12:00 +32°C° 0.9 mm 4 mps 760 mmHg 70%
    13:00 +32°C° 0.9 mm 4 mps 759 mmHg 70%
    14:00 +32°C° 0.6 mm 5 mps 759 mmHg 70%
    15:00 +32°C° 0.6 mm 5 mps 758 mmHg 70%
    16:00 +32°C° 0.6 mm 5 mps 758 mmHg 70%
    17:00 +30°C° 0 mm 5 mps 758 mmHg 72%
    18:00 +30°C° 0 mm 4 mps 758 mmHg 75%
    19:00 +29°C° 0 mm 4 mps 759 mmHg 78%
    20:00 +29°C° 0 mm 4 mps 759 mmHg 80%
    21:00 +28°C° 0 mm 4 mps 760 mmHg 81%
    22:00 +28°C° 0 mm 3 mps 760 mmHg 83%
    23:00 +28°C° 0 mm 3 mps 760 mmHg 84%

    21 January, Monday

    Time Temperature Precipitation Wind Pressure Humidity
    00:00 +28°C° 0 mm 3 mps 760 mmHg 85%
    01:00 +28°C° 0 mm 3 mps 759 mmHg 85%
    02:00 +27°C° 0.1 mm 3 mps 759 mmHg 86%
    03:00 +27°C° 0.1 mm 2 mps 759 mmHg 87%
    04:00 +27°C° 0.1 mm 2 mps 759 mmHg 88%
    05:00 +27°C° 0.1 mm 2 mps 759 mmHg 87%
    06:00 +27°C° 0.1 mm 2 mps 759 mmHg 86%
    07:00 +28°C° 0.1 mm 2 mps 759 mmHg 85%
    08:00 +29°C° 0.9 mm 2 mps 760 mmHg 81%
    09:00 +30°C° 0.9 mm 3 mps 760 mmHg 76%
    10:00 +32°C° 0.9 mm 4 mps 760 mmHg 71%
    11:00 +32°C° 0.7 mm 4 mps 760 mmHg 70%
    12:00 +32°C° 0.7 mm 5 mps 759 mmHg 69%
    13:00 +33°C° 0.7 mm 5 mps 759 mmHg 68%
    14:00 +33°C° 0.4 mm 5 mps 759 mmHg 69%
    15:00 +32°C° 0.4 mm 5 mps 758 mmHg 70%
    16:00 +32°C° 0.4 mm 6 mps 758 mmHg 70%
    17:00 +30°C° 0.2 mm 5 mps 758 mmHg 74%
    18:00 +29°C° 0.2 mm 5 mps 758 mmHg 77%
    19:00 +29°C° 0.2 mm 5 mps 759 mmHg 81%
    20:00 +28°C° 0.2 mm 4 mps 759 mmHg 82%
    21:00 +28°C° 0.2 mm 4 mps 760 mmHg 83%
    22:00 +28°C° 0.2 mm 4 mps 760 mmHg 83%
    23:00 +28°C° 0.1 mm 4 mps 760 mmHg 84%

    22 January, Tuesday

    Time Temperature Precipitation Wind Pressure Humidity
    00:00 +28°C° 0.1 mm 3 mps 760 mmHg 84%
    01:00 +27°C° 0.1 mm 3 mps 760 mmHg 85%
    02:00 +27°C° 0 mm 3 mps 759 mmHg 85%
    03:00 +27°C° 0 mm 3 mps 759 mmHg 84%
    04:00 +27°C° 0 mm 3 mps 759 mmHg 84%
    05:00 +27°C° 0.1 mm 3 mps 759 mmHg 84%
    06:00 +27°C° 0.1 mm 2 mps 759 mmHg 83%
    07:00 +27°C° 0.1 mm 2 mps 760 mmHg 83%
    08:00 +29°C° 0.1 mm 3 mps 760 mmHg 76%
    09:00 +30°C° 0.1 mm 3 mps 760 mmHg 69%
    10:00 +32°C° 0.1 mm 4 mps 760 mmHg 63%
    11:00 +33°C° 0 mm 4 mps 760 mmHg 60%
    12:00 +33°C° 0 mm 4 mps 759 mmHg 57%
    13:00 +34°C° 0 mm 4 mps 759 mmHg 54%
    14:00 +34°C° 0 mm 5 mps 758 mmHg 55%
    15:00 +34°C° 0 mm 5 mps 758 mmHg 56%
    16:00 +33°C° 0 mm 5 mps 757 mmHg 57%
    17:00 +32°C° 0 mm 4 mps 757 mmHg 62%
    18:00 +30°C° 0 mm 4 mps 758 mmHg 67%
    19:00 +29°C° 0 mm 3 mps 758 mmHg 72%
    20:00 +28°C° 0 mm 3 mps 758 mmHg 74%
    21:00 +28°C° 0 mm 3 mps 759 mmHg 77%
    22:00 +27°C° 0 mm 3 mps 759 mmHg 79%
    23:00 +27°C° 0 mm 2 mps 759 mmHg 80%
    Show more